Home > Weather > Ås > Past weeks

Flag for Norway Past Weather in Ås, Norway — Yesterday and Last 2 Weeks

Now
50 °F

Cool.


Feels Like: 43 °F
Forecast: 52 / 74 °F
Wind: 24 mph from Northeast

Location: Statfjord B

Current Time: May 30, 2016 at 9:05:23 AM

Latest Report: May 30, 2016 at 8:20 AM


Visibility: N/A

Pressure: 30.18 "Hg

Humidity: 94%

Dew Point: 48 °F

Location of ÅsLocation

Past Weather in Ås — Graph

°F

Ås Temperature Yesterday

Maximum temperature yesterday: 59 °F (at 3:20 PM)
Minimum temperature yesterday: 46 °F (at 12:20 AM)
Average temperature yesterday: 53 °F

High & Low Weather Summary for the Past Weeks

 TemperatureHumidityPressure
High59 °F (May 29, 3:20 PM)100% (May 20, 4:20 AM)30.30 "Hg (May 20, 4:20 AM)
Low41 °F (May 15, 7:20 AM)49% (May 19, 4:20 AM)29.47 "Hg (May 21, 9:50 PM)
Average46 °F81%29.97 "Hg
* Reported May 15 7:20 AM — May 30 7:50 AM, Ås, Weather by CustomWeather, © 2016

Note: Actual official high and low records may vary slightly from our data, if they occured in-between our weather recording intervals... More about our weather records

Advertising

Ås Weather History for the Previous 24 Hours

Scroll right to see more
 ConditionsComfort  
Time TempWeatherWind HumidityBarometerVisibility
7:50 AM
Mon, May 30
50 °FCool.25 mph94%30.18 "HgN/A
6:50 AM50 °FCool.24 mph94%30.18 "HgN/A
6:20 AM52 °FCool.22 mph88%30.18 "HgN/A
5:50 AM52 °FPassing clouds.21 mph88%30.18 "HgN/A
5:20 AM52 °FPartly sunny.20 mph88%30.18 "HgN/A
4:50 AM52 °FPassing clouds.18 mph88%30.18 "HgN/A
4:20 AM52 °FPassing clouds.18 mph88%30.18 "HgN/A
3:50 AM52 °FPassing clouds.22 mph82%30.18 "HgN/A
3:20 AM52 °FPassing clouds.21 mph82%30.18 "HgN/A
2:50 AM54 °FCool.21 mph77%30.18 "HgN/A
2:20 AM52 °FCool.20 mph77%30.18 "HgN/A
1:50 AM54 °FCool.20 mph77%30.18 "HgN/A
1:20 AM54 °FCool.18 mph77%30.18 "HgN/A
12:50 AM54 °FCool.17 mph77%30.18 "HgN/A
12:20 AM54 °FCool.17 mph77%30.18 "HgN/A
11:50 PM
Sun, May 29
54 °FCool.16 mph77%30.18 "HgN/A
11:20 PM54 °FCool.17 mph72%30.18 "HgN/A
10:50 PM54 °FCool.16 mph72%30.18 "HgN/A
10:20 PM55 °FCool.16 mph67%30.18 "HgN/A
9:50 PM55 °FCool.16 mph77%30.18 "HgN/A
9:20 PM54 °FCool.16 mph88%30.18 "HgN/A
8:50 PM54 °FCool.15 mph88%30.18 "HgN/A
8:20 PM54 °FCool.14 mph88%30.18 "HgN/A
7:50 PM54 °FCool.13 mph77%30.15 "HgN/A
7:20 PM54 °FCool.10 mph72%30.15 "HgN/A
6:50 PM54 °FCool.9 mph72%30.15 "HgN/A
6:20 PM54 °FCool.9 mph77%30.15 "HgN/A
5:50 PM55 °FCool.7 mph67%30.15 "HgN/A
5:20 PM55 °FCool.7 mph72%30.15 "HgN/A
4:50 PM55 °FCool.6 mph67%30.15 "HgN/A
4:20 PM57 °FCool.5 mph67%30.15 "HgN/A
3:50 PM57 °FCool.2 mph63%30.15 "HgN/A
3:20 PM59 °FPartly sunny.6 mph63%30.15 "HgN/A
2:50 PM57 °FOvercast.8 mph67%30.15 "HgN/A
2:20 PM55 °FPartly sunny.10 mph72%30.15 "HgN/A
1:50 PM55 °FPartly sunny.13 mph77%30.15 "HgN/A
1:20 PM57 °FOvercast.10 mph67%30.15 "HgN/A
12:50 PM57 °FPassing clouds.3 mph72%30.15 "HgN/A
12:20 PM55 °FPartly sunny.12 mph82%30.15 "HgN/A
11:50 AM52 °FPartly sunny.14 mph88%30.12 "HgN/A
11:20 AM52 °FBroken clouds.15 mph94%30.15 "HgN/A
10:50 AM52 °FSprinkles. Partly sunny.16 mph94%30.12 "HgN/A
10:20 AM52 °FSprinkles. Partly sunny.15 mph94%30.12 "HgN/A
9:50 AM52 °FPartly sunny.20 mph94%30.12 "HgN/A
9:20 AM52 °FPartly sunny.21 mph94%30.12 "HgN/A
Weather by CustomWeather, © 2016

See weather overviewHow to use our weather pages